[記錄] 一日武陵四秀

看板Hiking (登山)作者 (哈登牌監視器)時間1周前 (), 5天前編輯推噓25(2504)
留言29則, 26人參與, 6天前最新討論串4/4 (看更多)
日期:2021/11/21 里程:26.24k 爬升:2870m 人數:2 天氣:中午前微風大景,中午後白牆 記錄工具:Garmin Fenix 6X 平均溫度:20.5 °C 最低溫度:12.0 °C 最高溫度:27.0 °C 平均心率:135 BPM 最大心率:171 BPM 總攀爬高度:2,870.1m 下坡總計:3,017.4m 最低海拔:1,877.6m 最高海拔:3,507.2m 平均速度:2.2 kph 經過時間:13h28m 負重:5~6kg 飲水:3L 食物:AminoMax能量膠8條(35g/條)、鹽糖*10(2.5g/顆)、snickers*10(18g/顆)、無調味腰果(300g)背包:迪卡農KALENJI 15L多口袋越野跑步背包(360g) 水袋:Platypus鴨嘴獸2L水袋(30g) 水袋2:迪卡農500ML跑步軟式水壺*2 羽絨:Mont-Bell Superior Down Parka #1101464(247g) 雨衣:Mont-Bell GTX Rain Dancer Jacket(335g) 雨褲:Mont-Bell Thunder Pass Full Zip Pants(246g) 中層:Rab POWER STRETCH PRO PULL-ON(342g) 底層:迪卡農KIPRUN SKINCARE男款冬季跑步長袖T恤 底層2:Nike長袖排汗內搭衣 褲子:Giordano運動短褲+Nike運動leggings 頭巾:BUFFx台灣三六八 官方聯名款 Original 經典頭巾 頭巾2:迪卡農kalenji頭巾 毛帽:小狐狸羊毛帽(80g) 頭燈:K2 500流明 高亮度可調角度頭燈(不含電池60g) 登山鞋:SALOMON X ULTRA 4 GTX 登山杖:迪卡農登山杖 0240起登 0418桃山停機坪 0543桃山(休息+看日出+拍照) 0630啟程喀拉業 0710詩崙山 0740喀拉業 0755啟程回桃山 0822詩崙山 0915桃山 0925啟程品田山 0930桃山山屋 1025三叉營地路口指標 1108新達山屋 1200品田山前峰 1220品田山 1245啟程往池有 1318新達山屋 1415池有山 1430三叉營地路口指標 1530品池登山口 1607武陵山莊 再品池、桃喀分開完成, 四大鳥山之首-劍山也完成後, 就規劃此次四秀測試自己的體能狀況, 於是便約上次羊畢羊一起走完的山友(剛好他桃喀還沒完成)共同前行, 嗯,他也爽快的答應了。 週六晚上開夜車至武陵山莊約11點就立馬把握時間車宿小睡, 經過2小半的休息,凌晨1點半醒來繼續思考人生30分鐘後就開始整裝準備出發, 出發的時候武陵山莊前還滿多人準備要摸黑啟登的,不知為何,看到有其他山友一起同行心 整段上坡有刻意放慢腳步保留體力給後面喀拉業來回與桃山往品田這兩段個人覺得最硬的,桃喀來回這段雖然說沒有小劍來回這麼噁心, 但體力也是消耗滿大的,最後的爬坡真的是天堂路。 桃山到三叉營地路口這段第一次走,也是上上下下有攀岩地形,比想像中還難一點。 三叉營地路口-新達山屋-品田山這段是我走最厭世的一段,體力基本上已經接近緊繃,只能上品田後比較鬆了一口氣,因為後面上坡就沒那麼多了,爬坡真的是我的罩門xD,下坡才能稍微加點速。路上有遇到的山友說我們桃山上最硬,是不是因為下品池登山口還要走3.5k的步道,不得不說經過4秀的折磨還要再走步道真的是走到想睡覺。這次一日四秀對我來說是人生必做清單之一,時間上有抓在自己大概評估的時間內,覺得有點成就感,繼續努力,也感謝老天讓我能平安上下山。 GPX路徑:https://hiking.biji.co/index.php?q=trail&act=gpx_detail&id=650118 http://i.imgur.com/e18Ppoz.jpg
當天的月亮超圓超亮 http://i.imgur.com/akTonpO.jpg
桃山日出與三角點 http://i.imgur.com/wRmRmp6.jpg
樸實無華詩崙山 https://i.imgur.com/rGzVCQg.jpeg
鳥山頭,但對面有阿尖是還好 https://i.imgur.com/v1Xavpi.jpeg
回程桃山最後的天堂路 https://i.imgur.com/4jLyzRg.jpeg
大小霸與往桃山山屋路 https://i.imgur.com/M3Oy5ZN.jpeg
往三叉營地路上 https://i.imgur.com/8p02fri.jpeg
往新達山屋路上草叢 https://i.imgur.com/HPcrYcA.jpeg
下品田,已厭世 ----- Sent from JPTT on my Xiaomi M2007J22G. -- ※ 發信站: 批踢踢實業坊(ptt.cc), 來自: 1.200.17.27 (臺灣) ※ 文章網址: https://www.ptt.cc/bbs/Hiking/M.1637759551.A.6CA.html JacobBaker: 我還不跪爆!!!!!!!!!!!!!!!!!!!!!!!!!!!! J大你浮誇了喔 推 JacobBaker: 邊走邊睡還能那麼快 太可怕了 ※ 編輯: mike40709 (1.200.17.27 臺灣), 11/24/2021 21:27:48

11/24 21:31, 1周前 , 1F
好可怕 所以下一篇一日四秀會是12h多嗎
11/24 21:31, 1F
來啊來互相傷害阿 是說怎麼版標...xD

11/24 21:32, 1周前 , 2F
11/24 21:32, 2F

11/24 21:41, 1周前 , 3F
四秀大賽開賽
11/24 21:41, 3F
剛好跟J大同個週末走xD ※ 編輯: mike40709 (1.200.17.27 臺灣), 11/24/2021 21:44:33 ※ 編輯: mike40709 (1.200.17.27 臺灣), 11/24/2021 21:45:20

11/24 21:58, 1周前 , 4F
現在是拿四秀互相傷害就對了啦QQ
11/24 21:58, 4F
什麼傷害 是蕉流蕉流

11/24 22:07, 1周前 , 5F
推,厲害!
11/24 22:07, 5F

11/24 22:40, 1周前 , 6F
下個月也要去走4秀 但是是走3天.....
11/24 22:40, 6F
走3天也不錯阿 四秀風景都很好慢慢欣賞

11/24 23:38, 1周前 , 7F
好可怕
11/24 23:38, 7F
小弟向L大請安

11/25 00:28, 1周前 , 8F
樓上也很可怕 這篇先跪了
11/25 00:28, 8F

11/25 00:30, 1周前 , 9F
你那天起登 我應該還在車上躺著不醒人事XD
11/25 00:30, 9F
所以J大是爬完車宿週日再回家?

11/25 00:58, 1周前 , 10F
這裡是不是沒有凡人版本的記錄 XD
11/25 00:58, 10F
※ 編輯: mike40709 (1.200.17.27 臺灣), 11/25/2021 01:12:25

11/25 05:33, 1周前 , 11F
可怕
11/25 05:33, 11F
哇是J神!!向您請安了

11/25 07:48, 1周前 , 12F
Orz..........
11/25 07:48, 12F
是黑鳥大!!快快請起別這樣小弟承受不住

11/25 08:06, 1周前 , 13F
四秀週的意思…還好我走3天!
11/25 08:06, 13F
三天在山上也很幸福的

11/25 08:11, 1周前 , 14F
我宣布一日504秀大賽開始
11/25 08:11, 14F
歡迎大家互相傷害xD

11/25 09:16, 1周前 , 15F
現在的起手式都一日四秀了麼
11/25 09:16, 15F
可能四秀對大家來說都是個里程碑!?

11/25 09:29, 1周前 , 16F
(╮⊙△⊙)..........
11/25 09:29, 16F

11/25 09:29, 1周前 , 17F
我還不跪爆
11/25 09:29, 17F
是Z大!!快請起xD!

11/25 09:47, 1周前 , 18F
也是上週去,只是走三天
11/25 09:47, 18F
三天也很讚!

11/25 09:50, 1周前 , 19F
四秀xD
11/25 09:50, 19F
被大家玩壞的四秀xD

11/25 17:48, 1周前 , 20F
坐等四秀一日二刷XDDDD
11/25 17:48, 20F
那是三條魚的等級了 ※ 編輯: mike40709 (1.200.17.27 臺灣), 11/25/2021 20:30:22

11/25 21:41, 1周前 , 21F
11/25 21:41, 21F

11/26 00:26, 1周前 , 22F
跪了
11/26 00:26, 22F

11/26 08:53, 1周前 , 23F
一日四秀登山口,一日武陵看四秀,武陵看四秀一日
11/26 08:53, 23F

11/26 09:03, 1周前 , 24F
奇怪欸為什麼看個ptt膝蓋會跪壞???
11/26 09:03, 24F

11/26 17:20, 1周前 , 25F
那天在喀拉業上桃山時有看到你們剛要過去,原來你們
11/26 17:20, 25F

11/26 17:20, 1周前 , 26F
也是四秀的
11/26 17:20, 26F
喔喔對啊 那時候我記得我說時間夠就四秀xD

11/26 20:09, 1周前 , 27F
11/26 20:09, 27F
※ 編輯: mike40709 (1.200.17.27 臺灣), 11/26/2021 22:12:22

11/26 23:04, 1周前 , 28F
我一定是累到沒聽到哈哈
11/26 23:04, 28F

11/27 06:24, 6天前 , 29F
推~帥氣鞋子~~
11/27 06:24, 29F
這雙真的帥 當時一見鍾情 試了這雙沒試其他雙就買了 ※ 編輯: mike40709 (1.200.17.27 臺灣), 11/28/2021 13:21:33
文章代碼(AID): #1XdZe_RA (Hiking)
文章代碼(AID): #1XdZe_RA (Hiking)